Flag for Australia Weather past 2 weeks in Perth, Western Australia, Australia

Now
59 °F

Partly sunny.


Feels Like: 56 °F
Forecast: 47 / 60 °F
Wind: 15 mph from Southeast

Location: Belmont Perth Airport

Current Time: Aug 1, 2015 at 4:22:04 PM

Latest Report: Aug 1, 2015 at 4:00 PM


Visibility: N/A

Pressure: 30.27 "Hg

Humidity: 55%

Dew point: 43 °F

Location of PerthLocation

Historic Weather in Perth — Graph

°F

Perth temperature yesterday

Maximum temperature yesterday: 72 °F (at 3:30 PM)
Minimum temperature yesterday: 57 °F (at 11:02 PM)
Average temperature yesterday: 63 °F

Past Weeks' High & Low Weather Summary

 TemperatureHumidityPressure
High72 °F (Jul 31, 3:30 PM)100% (Jul 19, 3:00 AM)30.48 "Hg (Jul 19, 3:00 AM)
Low34 °F (Jul 24, 6:00 AM)32% (Jul 19, 12:00 PM)29.71 "Hg (Jul 20, 1:30 PM)
Average57 °F76%30.12 "Hg
* Reported Jul 17 3:00 PM — Aug 1 3:00 PM, Perth, Weather by CustomWeather, © 2015

Note: Actual official high and low records may vary slightly from our data, if they occured in-between our weather recording intervals... More about our weather records

Advertising

Perth weather history for previous 24 hours

 ConditionsComfort  
Time TempWeatherWind HumidityBarometerVisibility
3:00 PM
Sat, Aug 1
61 °FPartly sunny.16 mph48%30.24 "HgN/A
2:30 PM63 °FPartly sunny.17 mph49%30.24 "HgN/A
2:00 PM63 °FScattered clouds.18 mph45%30.24 "HgN/A
1:30 PM61 °FScattered clouds.18 mph52%30.24 "HgN/A
1:00 PM63 °FPassing clouds.21 mph45%30.24 "HgN/A
12:30 PM63 °FPassing clouds.20 mph45%30.24 "HgN/A
12:00 PM61 °FPassing clouds.21 mph48%30.24 "HgN/A
11:30 AM61 °FPassing clouds.20 mph52%30.24 "HgN/A
11:00 AM59 °FPassing clouds.20 mph55%30.24 "HgN/A
10:30 AM59 °FScattered clouds.18 mph55%30.24 "HgN/A
10:03 AM59 °FPassing clouds.20 mph55%30.24 "HgN/A
9:30 AM57 °FPassing clouds.18 mph59%30.21 "HgN/A
9:00 AM55 °FPassing clouds.18 mph63%30.21 "HgN/A
8:30 AM55 °FScattered clouds.12 mph63%30.18 "HgN/A
8:00 AM55 °FPassing clouds.12 mph63%30.18 "HgN/A
7:30 AM54 °FScattered clouds.10 mph72%30.15 "HgN/A
7:00 AM54 °FPassing clouds.14 mph72%30.12 "HgN/A
6:30 AM54 °FPassing clouds.13 mph72%30.09 "HgN/A
5:30 AM54 °FPassing clouds.13 mph72%30.07 "HgN/A
5:00 AM55 °FPassing clouds.13 mph67%30.07 "HgN/A
4:30 AM55 °FPassing clouds.10 mph67%30.07 "HgN/A
4:00 AM55 °FClear.10 mph67%30.04 "Hg10 mi
3:30 AM55 °FClear.10 mph67%30.04 "Hg10 mi
3:00 AM55 °FClear.14 mph67%30.01 "Hg10 mi
2:30 AM55 °FPartly cloudy.8 mph67%30.01 "HgN/A
2:00 AM55 °FPartly cloudy.9 mph67%30.01 "HgN/A
1:30 AM55 °FPassing clouds.13 mph72%30.01 "HgN/A
1:00 AM55 °FPassing clouds.8 mph72%29.98 "HgN/A
12:30 AM55 °FPartly cloudy.14 mph77%29.98 "HgN/A
12:00 AM57 °FPartly cloudy.20 mph72%29.95 "HgN/A
11:30 PM
Fri, Jul 31
57 °FPartly cloudy.18 mph72%29.95 "HgN/A
11:02 PM57 °FPartly cloudy.20 mph77%29.95 "HgN/A
10:30 PM59 °FPartly cloudy.13 mph77%29.95 "HgN/A
10:00 PM59 °FPartly cloudy.13 mph77%29.92 "HgN/A
9:30 PM59 °FClear.8 mph77%29.92 "Hg10 mi
9:00 PM61 °FClear.7 mph83%29.92 "Hg10 mi
8:30 PM61 °FClear.6 mph77%29.92 "Hg10 mi
8:00 PM61 °FPartly cloudy.5 mph83%29.92 "HgN/A
7:30 PM63 °FPassing clouds.8 mph73%29.89 "HgN/A
7:00 PM63 °FPassing clouds.9 mph73%29.89 "HgN/A
6:30 PM63 °FPassing clouds.8 mph73%29.86 "HgN/A
6:00 PM63 °FPassing clouds.8 mph73%29.86 "HgN/A
5:30 PM64 °FPassing clouds.7 mph64%29.86 "HgN/A
5:00 PM68 °FPassing clouds.10 mph60%29.83 "HgN/A
4:30 PM70 °FPassing clouds.9 mph53%29.83 "HgN/A
Weather by CustomWeather, © 2015

See weather overviewHow to use our weather pages